Weather History for Eastsound, WA

Change the Weather History Date:

Thursday, March 21, 2013

  Actual Average (KBLI) Record (KBLI)
Temperature  
Mean Temperature 42 °F 45 °F  
Max Temperature 46 °F 53 °F 64 °F (2004)
Min Temperature 37 °F 37 °F 23 °F (1966)
Degree Days  
Heating Degree Days 24 20  
Month to date heating degree days 451  
Cooling Degree Days 0 0  
Month to date cooling degree days 0  
Year to date cooling degree days 0  
Moisture  
Dew Point 32 °F    
Average Humidity 73    
Maximum Humidity 87    
Minimum Humidity 53    
Precipitation  
Precipitation 0.00 in 0.11 in 0.48 in (1951)
Month to date precipitation 2.13  
Year to date precipitation 9.82  
Sea Level Pressure  
Sea Level Pressure 30.09 in    
Wind  
Wind Speed 7 mph (SW)    
Max Wind Speed 13 mph    
Max Gust Speed 17 mph    
Visibility 10 miles    
Events Rain    
T = Trace of Precipitation, MM = Missing Value Source: NWS Daily Summary

Daily Weather History Graph

Daily Weather History Graph

Search for Another Location

Airport:

Trip Planner

Search our weather history database for the weather conditions in past years. The results will help you decide how hot, cold, wet, or windy it might be!

Date:

Astronomy

Mar. 21, 2013 Rise Set
Actual Time 7:11 AM PDT 7:26 PM PDT
Civil Twilight 6:40 AM PDT 7:58 PM PDT
Nautical Twilight 6:03 AM PDT 8:35 PM PDT
Astronomical Twilight 5:24 AM PDT 9:13 PM PDT
Moon 1:38 PM PDT (3/21) 4:01 AM PDT (3/21)
Length of Visible Light 13h 17m
Length of Day
12h 14m
Waxing Gibbous, 69% of the Moon is Illuminated
Mar 21
Waxing Gibbous
Mar 27
Full
Apr 2
Last Quarter
Apr 10
New
Apr 18
First Quarter

Hourly Weather History & Observations

Time (PDT) Temp. Windchill Dew Point Humidity Pressure Visibility Wind Dir Wind Speed Gust Speed Precip Events Conditions
12:15 AM 39.2 °F 33.0 °F 32.0 °F 75% 29.94 in 10.0 mi SSW 9.2 mph - N/A   Clear
12:35 AM 39.2 °F 33.6 °F 32.0 °F 75% 29.95 in 10.0 mi South 8.1 mph - N/A   Clear
12:55 AM 39.2 °F 35.0 °F 32.0 °F 75% 29.96 in 10.0 mi South 5.8 mph - N/A   Clear
1:15 AM 37.4 °F 30.8 °F 32.0 °F 81% 29.97 in 10.0 mi SSW 9.2 mph - N/A   Clear
1:35 AM 37.4 °F 30.8 °F 32.0 °F 81% 29.98 in 10.0 mi SSW 9.2 mph - N/A   Clear
2:15 AM 39.2 °F 34.2 °F 32.0 °F 75% 29.99 in 10.0 mi South 6.9 mph - N/A   Clear
2:35 AM 37.4 °F 30.3 °F 32.0 °F 81% 30.00 in 10.0 mi SSW 10.4 mph - N/A   Clear
2:55 AM 37.4 °F 30.8 °F 32.0 °F 81% 30.01 in 10.0 mi SSW 9.2 mph - N/A   Clear
3:15 AM 37.4 °F 30.8 °F 32.0 °F 81% 30.01 in 10.0 mi SSW 9.2 mph - N/A   Clear
3:35 AM 37.4 °F 32.1 °F 32.0 °F 81% 30.02 in 10.0 mi South 6.9 mph - N/A   Clear
4:15 AM 37.4 °F 30.8 °F 32.0 °F 81% 30.04 in 10.0 mi SSW 9.2 mph - N/A   Clear
4:35 AM 37.4 °F 30.3 °F 32.0 °F 81% 30.03 in 10.0 mi South 10.4 mph - N/A   Clear
4:55 AM 37.4 °F 30.8 °F 32.0 °F 81% 30.04 in 10.0 mi SSW 9.2 mph - N/A   Clear
5:15 AM 37.4 °F 31.4 °F 32.0 °F 81% 30.05 in 10.0 mi South 8.1 mph - N/A   Clear
5:35 AM 37.4 °F 30.8 °F 32.0 °F 81% 30.05 in 10.0 mi South 9.2 mph - N/A   Clear
5:55 AM 37.4 °F 32.1 °F 32.0 °F 81% 30.06 in 10.0 mi South 6.9 mph - N/A   Partly Cloudy
6:15 AM 37.4 °F 30.8 °F 32.0 °F 81% 30.06 in 10.0 mi SSW 9.2 mph - N/A   Clear
6:35 AM 37.4 °F 32.1 °F 32.0 °F 81% 30.07 in 10.0 mi SSW 6.9 mph - N/A   Clear
6:55 AM 37.4 °F 32.1 °F 32.0 °F 81% 30.07 in 10.0 mi SSW 6.9 mph - N/A   Clear
7:15 AM 37.4 °F 32.1 °F 32.0 °F 81% 30.08 in 10.0 mi South 6.9 mph - N/A   Clear
7:35 AM 37.4 °F 34.9 °F 32.0 °F 81% 30.08 in 10.0 mi South 3.5 mph - N/A   Clear
7:55 AM 37.4 °F 34.9 °F 32.0 °F 81% 30.08 in 10.0 mi South 3.5 mph - N/A   Clear
8:15 AM 37.4 °F 33.8 °F 32.0 °F 81% 30.09 in 10.0 mi South 4.6 mph - N/A   Clear
8:35 AM 39.2 °F 35.0 °F 32.0 °F 75% 30.09 in 10.0 mi South 5.8 mph - N/A   Clear
8:55 AM 39.2 °F 34.2 °F 33.8 °F 81% 30.09 in 10.0 mi SSW 6.9 mph - N/A   Clear
9:15 AM 39.2 °F 35.0 °F 32.0 °F 75% 30.10 in 10.0 mi SSW 5.8 mph - N/A   Partly Cloudy
9:35 AM 41.0 °F 36.4 °F 32.0 °F 70% 30.11 in 10.0 mi SSW 6.9 mph - N/A   Partly Cloudy
9:55 AM 41.0 °F 36.4 °F 32.0 °F 70% 30.11 in 10.0 mi SW 6.9 mph - N/A   Mostly Cloudy
10:15 AM 41.0 °F 34.7 °F 32.0 °F 70% 30.11 in 10.0 mi SSW 10.4 mph - N/A   Scattered Clouds
10:35 AM 42.8 °F 38.0 °F 32.0 °F 66% 30.12 in 10.0 mi West 8.1 mph - N/A   Clear
10:55 AM 41.0 °F 36.4 °F 32.0 °F 70% 30.13 in 10.0 mi WSW 6.9 mph - N/A   Partly Cloudy
11:15 AM 42.8 °F 39.3 °F 32.0 °F 66% 30.12 in 10.0 mi SW 5.8 mph - N/A   Clear
11:35 AM 42.8 °F 37.5 °F 32.0 °F 66% 30.13 in 10.0 mi SW 9.2 mph - N/A   Clear
11:55 AM 42.8 °F 38.6 °F 32.0 °F 66% 30.13 in 10.0 mi SW 6.9 mph - N/A   Clear
12:15 PM 44.6 °F 39.7 °F 32.0 °F 61% 30.13 in 10.0 mi WSW 9.2 mph - N/A   Clear
12:35 PM 44.6 °F 39.2 °F 32.0 °F 61% 30.13 in 10.0 mi West 10.4 mph - N/A   Clear
12:55 PM 44.6 °F 41.4 °F 30.2 °F 57% 30.13 in 10.0 mi WNW 5.8 mph - N/A   Clear
1:15 PM 46.4 °F 43.5 °F 30.2 °F 53% 30.13 in 10.0 mi West 5.8 mph - N/A   Clear
1:35 PM 44.6 °F - 30.2 °F 57% 30.12 in 10.0 mi Calm Calm - N/A   Clear
1:55 PM 44.6 °F - 30.2 °F 57% 30.12 in 10.0 mi Calm Calm - N/A   Clear
2:15 PM 46.4 °F 42.4 °F 32.0 °F 57% 30.11 in 10.0 mi South 8.1 mph - N/A   Clear
2:35 PM 44.6 °F - 32.0 °F 61% 30.10 in 10.0 mi Calm Calm - N/A   Partly Cloudy
2:55 PM 46.4 °F 43.5 °F 32.0 °F 57% 30.10 in 10.0 mi South 5.8 mph - N/A   Mostly Cloudy
3:35 PM 46.4 °F 42.4 °F 32.0 °F 57% 30.11 in 10.0 mi WNW 8.1 mph - N/A   Scattered Clouds
3:55 PM 44.6 °F 42.2 °F 32.0 °F 61% 30.11 in 10.0 mi WSW 4.6 mph - N/A   Partly Cloudy
4:15 PM 42.8 °F 40.1 °F 30.2 °F 61% 30.11 in 7.0 mi North 4.6 mph 17.3 mph N/A Rain Light Rain
4:35 PM 42.8 °F - 32.0 °F 66% 30.11 in 10.0 mi Calm Calm - N/A   Clear
4:55 PM 44.6 °F 39.7 °F 32.0 °F 61% 30.11 in 10.0 mi South 9.2 mph - N/A   Partly Cloudy
5:15 PM 44.6 °F 41.4 °F 32.0 °F 61% 30.11 in 10.0 mi SSW 5.8 mph - N/A   Partly Cloudy
5:35 PM 41.0 °F 39.0 °F 35.6 °F 81% 30.11 in 10.0 mi South 3.5 mph - N/A   Partly Cloudy
6:15 PM 41.0 °F 37.1 °F 32.0 °F 70% 30.11 in 10.0 mi South 5.8 mph - N/A   Partly Cloudy
6:35 PM 41.0 °F 33.9 °F 35.6 °F 81% 30.10 in 10.0 mi SSW 12.7 mph - N/A   Clear
6:55 PM 41.0 °F 34.7 °F 35.6 °F 81% 30.10 in 10.0 mi South 10.4 mph - N/A   Clear
7:15 PM 41.0 °F 36.4 °F 35.6 °F 81% 30.10 in 10.0 mi South 6.9 mph - N/A   Clear
7:35 PM 39.2 °F 34.2 °F 35.6 °F 87% 30.11 in 10.0 mi South 6.9 mph - N/A   Scattered Clouds
7:55 PM 39.2 °F 37.0 °F 35.6 °F 87% 30.11 in 10.0 mi SSW 3.5 mph - N/A   Scattered Clouds
8:15 PM 39.2 °F - 35.6 °F 87% 30.12 in 10.0 mi Calm Calm - N/A   Scattered Clouds
8:35 PM 39.2 °F 35.0 °F 32.0 °F 75% 30.13 in 10.0 mi SW 5.8 mph - N/A   Clear
8:55 PM 41.0 °F 39.0 °F 32.0 °F 70% 30.14 in 10.0 mi WSW 3.5 mph - N/A   Scattered Clouds
9:15 PM 41.0 °F 37.1 °F 32.0 °F 70% 30.15 in 10.0 mi WNW 5.8 mph - N/A   Mostly Cloudy
9:35 PM 41.0 °F 38.0 °F 33.8 °F 76% 30.15 in 10.0 mi West 4.6 mph - N/A   Overcast
9:55 PM 39.2 °F 35.9 °F 33.8 °F 81% 30.16 in 10.0 mi WNW 4.6 mph - N/A Rain Light Rain
10:15 PM 39.2 °F - 33.8 °F 81% 30.16 in 10.0 mi Calm Calm - N/A   Overcast
10:35 PM 39.2 °F - 33.8 °F 81% 30.17 in 10.0 mi Calm Calm - N/A   Overcast
10:55 PM 39.2 °F 37.0 °F 32.0 °F 75% 30.17 in 10.0 mi WNW 3.5 mph - N/A   Overcast
11:15 PM 39.2 °F 35.0 °F 32.0 °F 75% 30.18 in 10.0 mi NNW 5.8 mph - N/A   Mostly Cloudy
11:35 PM 39.2 °F - 32.0 °F 75% 30.18 in 10.0 mi Calm Calm - N/A   Overcast